[TLELIST] Archives

 

Current TLEs

April 15th 2008 PDT

HST 1 20580U 90037B 08106.21710721 .00000362 00000-0 15187-4 0 1146 2 20580 028.4692 013.9208 0003603 078.6643 281.4353 15.00365241785516 ISS (ZARYA) 1 25544U 98067A 08106.17372571 .00016655 00000-0 10198-3 0 3122 2 25544 051.6406 341.1783 0001213 010.6426 138.0821 15.77477689538580 CXO 1 25867U 99040B 08106.70833333 .00000353 00000-0 10000-3 0 1879 2 25867 063.4732 082.0598 6722043 279.6743 352.1395 00.37806286 3392 ____________________________________________________________________ These 2-Line ...Continue Reading

Current TLEs

April 14th 2008 PDT

HST 1 20580U 90037B 08104.88671321 .00000369 00000-0 15751-4 0 1132 2 20580 028.4691 022.5975 0003567 063.8835 296.2120 15.00364750785318 ISS (ZARYA) 1 25544U 98067A 08105.14789509 .00021814 00000-0 13238-3 0 3065 2 25544 051.6407 346.4726 0000914 024.7724 054.5043 15.77459991538427 CXO 1 25867U 99040B 08104.08333333 .00000304 00000-0 10000-3 0 1868 2 25867 063.4691 082.1390 6715821 279.7173 354.7334 00.37801918 3388 ____________________________________________________________________ These 2-Line ...Continue Reading

Current TLEs

April 13th 2008 PDT

HST 1 20580U 90037B 08103.22371940 .00000403 00000-0 18383-4 0 1125 2 20580 028.4689 033.4430 0003555 045.8559 314.2322 15.00364254785068 ISS (ZARYA) 1 25544U 98067A 08104.26471339 .00034955 00000-0 20972-3 0 3014 2 25544 051.6407 351.0349 0001410 354.8037 105.6990 15.77431200538282 CXO 1 25867U 99040B 08104.08333333 .00000304 00000-0 10000-3 0 1868 2 25867 063.4691 082.1390 6715821 279.7173 354.7334 00.37801918 3388 ____________________________________________________________________ These 2-Line ...Continue Reading

Current TLEs

April 12th 2008 PDT

HST 1 20580U 90037B 08102.15940261 .00000432 00000-0 20641-4 0 1115 2 20580 028.4688 040.3838 0003553 034.1850 325.8966 15.00363923784905 ISS (ZARYA) 1 25544U 98067A 08103.31539473 .00025962 00000-0 15720-3 0 2936 2 25544 051.6417 355.9314 0000857 011.8100 094.2243 15.77392651538137 CXO 1 25867U 99040B 08104.08333333 .00000304 00000-0 10000-3 0 1868 2 25867 063.4691 082.1390 6715821 279.7173 354.7334 00.37801918 3388 ____________________________________________________________________ These 2-Line ...Continue Reading

Current TLEs

April 11th 2008 PDT

HST 1 20580U 90037B 08102.15940261 .00000432 00000-0 20641-4 0 1115 2 20580 028.4688 040.3838 0003553 034.1850 325.8966 15.00363923784905 ISS (ZARYA) 1 25544U 98067A 08102.30078900 .00037914 00000-0 22779-3 0 2872 2 25544 051.6406 001.1710 0001072 354.5612 106.1309 15.77359471537970 CXO 1 25867U 99040B 08100.45902778 .00000344 00000-0 10000-3 0 1853 2 25867 063.4549 082.2247 6708242 279.8028 221.2669 00.37798349 3372 ____________________________________________________________________ These 2-Line ...Continue Reading

Current TLEs

April 10th 2008 PDT

HST 1 20580U 90037B 08099.96424797 +.00000449 +00000-0 +21995-4 0 01144 2 20580 028.4684 054.6998 0003491 008.8048 351.2601 15.00362831784573 ISS (ZARYA) 1 25544U 98067A 08101.35146031 .00029843 00000-0 18076-3 0 2784 2 25544 051.6423 006.0627 0001049 355.9025 110.5605 15.77302003537828 CXO 1 25867U 99040B 08100.45902778 .00000344 00000-0 10000-3 0 1853 2 25867 063.4549 082.2247 6708242 279.8028 221.2669 00.37798349 3372 ____________________________________________________________________ These 2-Line ...Continue Reading

Current TLEs

April 9th 2008 PDT

HST 1 20580U 90037B 08098.96645089 +.00000442 +00000-0 +21391-4 0 01224 2 20580 028.4682 061.2075 0003494 357.0888 002.9720 15.00362154784429 ISS (ZARYA) 1 25544U 98067A 08100.50725694 .00030361 00000-0 18419-3 0 2731 2 25544 051.6418 010.4182 0000704 010.1000 339.5978 15.77255433537681 CXO 1 25867U 99040B 08098.83333333 .00000416 00000-0 10000-3 0 1845 2 25867 063.4408 082.2800 6709079 279.8380 359.8906 00.37806001 3367 ____________________________________________________________________ These 2-Line ...Continue Reading

Current TLEs

April 8th 2008 PDT

HST 1 20580U 90037B 08099.23252961 .00000445 00000-0 21634-4 0 1096 2 20580 028.4683 059.4719 0003486 000.5406 359.5186 15.00362351784461 ISS (ZARYA) 1 25544U 98067A 08099.49357639 .00029283 00000-0 17834-3 0 2681 2 25544 051.6420 015.6484 0000609 013.8604 336.2464 15.77188421537529 CXO 1 25867U 99040B 08098.83333333 .00000416 00000-0 10000-3 0 1845 2 25867 063.4408 082.2800 6709079 279.8380 359.8906 00.37806001 3367 ____________________________________________________________________ These 2-Line ...Continue Reading

Current TLEs

April 7th 2008 PDT

HST 1 20580U 90037B 08096.97085403 +.00000468 +00000-0 +23422-4 0 01125 2 20580 028.4679 074.2282 0003576 335.4709 024.5707 15.00361272784124 ISS (ZARYA) 1 25544U 98067A 08098.18988795 .00021765 00000-0 13424-3 0 2621 2 25544 051.6423 022.3739 0000341 011.2918 131.7902 15.77094087537320 CXO 1 25867U 99040B 08098.83333333 .00000416 00000-0 10000-3 0 1845 2 25867 063.4408 082.2800 6709079 279.8380 359.8906 00.37806001 3367 ____________________________________________________________________ These 2-Line ...Continue Reading

Current TLEs

April 6th 2008 PDT

HST 1 20580U 90037B 08095.24133558 +.00000483 +00000-0 +24601-4 0 01193 2 20580 028.4680 085.5060 0003593 316.7696 043.2608 15.00360337783860 ISS (ZARYA) 1 25544U 98067A 08097.52893519 .00039101 00000-0 23775-3 0 2596 2 25544 051.6441 025.7898 0001252 000.6958 347.2925 15.77074246537213 CXO 1 25867U 99040B 08096.20833333 .00000495 00000-0 10000-3 0 1835 2 25867 063.4178 082.3805 6707138 279.8320 002.5981 00.37810414 3352 ____________________________________________________________________ These 2-Line ...Continue Reading
  • This mailing list is a public mailing list - anyone may join or leave, at any time.
  • This mailing list is announce-only.

International Space Station (ISS) / Hubble Space Telescope (HST) / Chandra X-Ray Observatory Orbital Data via EMAIL

Privacy Policy:

Private list